Regional Weather Roundup
Issued by NWS

Home | Current Version | Previous Version | Text Only | Print | Product List | Glossary On
Versions: 1 2 3 4 5 6 7 8 9 10 11 12 13 14 15 16 17 18 19 20 21 22 23 24 25 26 27 28 29 30 31 32 33 34 35 36 37 38 39 40 41 42 43 44 45 46 47 48 49 50
000
ASUS44 KFWD 262215
RWRTX
NORTH TEXAS HOURLY WEATHER ROUNDUP
NATIONAL WEATHER SERVICE FORT WORTH TX
500 PM CDT THU MAY 26 2016

NOTE: "FAIR" INDICATES FEW OR NO CLOUDS BELOW 12,000 FEET WITH NO
SIGNIFICANT WEATHER AND/OR OBSTRUCTIONS TO VISIBILITY.

TXZ118-119-262300-
DALLAS/FORT WORTH METROPLEX

CITY           SKY/WX    TMP DP  RH WIND       PRES   REMARKS
DFW AIRPORT    PTSUNNY   78  66  66 SE17      29.81S
DALLAS LOVE    PTSUNNY   77  66  68 SE23      29.81F
FTW MEACHAM    CLOUDY    80  66  62 SE18G29   29.80F
DAL-EXECUTIVE  CLOUDY    76  66  71 SE18G25   29.81F
FTW-ALLIANCE   CLOUDY    80  65  59 S21G31    29.80S
FTW-NAS-JRB    CLOUDY    79  66  64 SE22G32   29.81F
FTW-SPINKS     MOSUNNY   77  68  73 SE16G23   29.83F
ARLINGTON      CLOUDY    79  67  66 SE17      29.81F
GRAND PRAIRIE  SUNNY     75  64  69 SE14G20   29.84S
ADDISON        SUNNY     79  66  65 SE18G28   29.81F
MESQUITE       SUNNY     79  66  65 SE21G26   29.82F
LANCASTER      CLOUDY    75  65  70 SE16      29.84S
$$

TXZ091>094-102>105-117-120-121-131>134-262300-
NORTH CENTRAL TEXAS

CITY           SKY/WX    TMP DP  RH WIND       PRES   REMARKS
SHRMAN/DENISON CLOUDY    76  60  57 SE24G35   29.83R
GAINESVILLE    CLOUDY    81  65  58 S25G33    29.82F
BOWIE          MOSUNNY   81  63  54 SE16G28   29.78F
BRIDGEPORT     MOSUNNY   81  66  61 SE16      29.81F
DECATUR        SUNNY     81  63  54 SE22G29   29.81F
DENTON         CLOUDY    81  66  60 S18G26    29.81F
MCKINNEY       CLOUDY    78  66  66 SE17      29.81F
GREENVILLE     CLOUDY    77  63  61 SE13G20   29.84F
ROCKWALL       CLOUDY    79  66  64 SE20G29   29.80F
TERRELL        CLOUDY    78  66  66 SE22G32   29.82F
WAXAHACHIE     CLOUDY    73  68  84 SE12G18   29.84F
CLEBURNE       CLOUDY    81  72  74 SE20G26   29.83F
GRANBURY       MOSUNNY   82  67  60 E18G26    29.79F
$$

TXZ083>090-098>101-113>116-127>130-139>142-154-155-262300-
WESTERN NORTH TEXAS

CITY           SKY/WX    TMP DP  RH WIND       PRES   REMARKS
WICHITA FALLS  PTSUNNY   84  68  58 S26G36    29.72F
WF-KICKAPOO    MOSUNNY   86  67  51 SE28G36   29.73F
VERNON         SUNNY     91  63  38 S22       29.68F HX  92
ABILENE        SUNNY     88  67  49 S15       29.72F HX  91
ABILENE-DYESS  MOSUNNY   88  67  48 SE13      29.70F HX  91
BRECKENRIDGE   MOSUNNY   85  70  59 SE17G26   29.74S HX  90
GRAHAM         SUNNY     83  69  62 E17G23    29.74F
MINERAL WELLS  MOSUNNY   82  67  60 SE20G31   29.77F
STEPHENVILLE   CLOUDY    78  67  68 SE9G20    29.81F
COMANCHE       CLOUDY    76  71  84 E14G22    29.78F
BROWNWOOD      SUNNY     90  72  55 SE13G20   29.73F HX  96
COLEMAN        MOSUNNY   93  65  39 SE13G20   29.72F HX  95
$$

TXZ143>147-156>162-174-175-262300-
CENTRAL TEXAS

CITY           SKY/WX    TMP DP  RH WIND       PRES   REMARKS
WACO           CLOUDY    76  69  79 E17G26    29.81F
WACO-MCGREGOR  CLOUDY   N/A N/A N/A E16G25      N/A
HILLSBORO      CLOUDY    73  68  84 E18       29.82F
CORSICANA      CLOUDY    74  68  81 SE20G28   29.84F
MEXIA          CLOUDY    70  69  98 SE12G23   29.84S
HEARNE         CLOUDY    70  70  98 E14       29.82F THUNDER
CAMERON        CLOUDY    73  71  92 E10G21    29.82F
TEMPLE         CLOUDY    74  71  91 E17G25    29.81F
KILLEEN        PTSUNNY   76  71  83 E20G29    29.78F
KILLEEN-SKYLRK CLOUDY    76  70  82 E18G25    29.80F
FORT HOOD      CLOUDY    75  70  84 E21G26    29.78F
GATESVILLE     PTSUNNY   79  70  73 SE10G18   29.81F
HAMILTON       CLOUDY    79  72  80 SE21      29.79F
LAMPASAS       MOSUNNY   80  74  84 E13       29.77F
$$

TXZ095>097-106>112-122>126-135>138-148>153-164>167-262300-
EAST TEXAS

CITY           SKY/WX    TMP DP  RH WIND       PRES   REMARKS
PARIS          CLOUDY    75  63  64 SE16      29.90S
SULPHUR SPRNGS CLOUDY    75  63  66 SE10G21   29.88S
MOUNT PLEASANT CLOUDY    72  71  96 E5        29.89F
GILMER         LGT RAIN  69  67  93 SE10      29.87R
MINEOLA        CLOUDY    72  66  83 SE3       29.86S
TYLER          RAIN      72  69  90 SE21G29   29.84F
LONGVIEW       TSTM      70  70 100 SE12      29.92F FOG
MARSHALL       CLOUDY    75  73  92 S5        29.96R
ATHENS         CLOUDY    70  70 100 SE16G25   29.83F
PALESTINE      RAIN      70  69  96 E12G22    29.89F
JACKSONVILLE   TSTM      69  69  99 E12G17    29.97S
HENDERSON      RAIN      69  69 100 S5        29.96S
CENTER         RAIN      77  76  96 CALM      29.95R
NACOGDOCHES    CLOUDY    73  73 100 SE9       29.94F
LUFKIN         RAIN      75  74  96 E14       29.90F FOG
$$

SUPPLEMENTAL OBSERVATIONS (CENTRAL)

CITY           SKY/WX    TMP DP  RH WIND       PRES   REMARKS
LAKE TEXOMA      N/A     79  64  61 SE12        N/A
CADDO GRASSLND   N/A     79  66  65 S9          N/A
PAT MAYSE LAKE   N/A     77  70  78 SE15        N/A
GREENVILLE       N/A     75  63  64 SE10G20     N/A
CEDAR HILL       N/A     75  66  73 SE10G26     N/A
ATHENS           N/A     72  66  83 SE20G26     N/A
MCGREGOR         N/A     75  68  78 SE16G22     N/A
$$

SUPPLEMENTAL OBSERVATIONS (WEST)

CITY           SKY/WX    TMP DP  RH WIND       PRES   REMARKS
MILLERS CREEK    N/A     90  72  55 SE17G24     N/A  HX  96
LBJ GRASSLAND    N/A     81  64  57 CALM        N/A
HAMBY            N/A     90  64  43 S14G23      N/A  HX  91
IVIE RESERVOIR   N/A     93  63  36 S12G21      N/A  HX  94
COLORADO BEND    N/A     84  70  61 S13         N/A
$$

SUPPLEMENTAL OBSERVATIONS (EAST)

CITY           SKY/WX    TMP DP  RH WIND       PRES   REMARKS
TEXARKANA        N/A     72  68  88 NE3         N/A
LINDEN           N/A     75  73  94 SE3         N/A
CADDO LAKE       N/A     75  72  88 CALM        N/A
HENDERSON        N/A     70  68  94 S5          N/A
LUFKIN           N/A     75  72  88 MISG        N/A
N SABINE NF      N/A     75  72  88 MISG        N/A
$$

SUPPLEMENTAL OBSERVATIONS ARE A COLLECTION OF AUTOMATED INSTRUMENTS
THAT ARE MAINTAINED BY A VARIETY OF FEDERAL AND STATE AGENCIES.
CERTAIN ELEMENTS...SUCH AS HUMIDITY VALUES AND SUSTAINED WIND
SPEEDS...MAY BE APPROXIMATED.




USA.gov is the U.S. government's official web portal to all federal, state and local government web resources and services.